Content
SEND FEEDBACK

Daily
Averages
Monthly
Summary
Philippines

ANGELES, PHILIPPINES


Home > Asia > Philippines
Elevation: 577 feet     Latitude: 15 19N     Longitude: 120 23E

WEATHER
 
SELECT A DAY
Number of Records: 96,486;   Date Range: 2/13/97 - 10/21/14
 
SHARE

PRINT THIS DATA

[ ← Previous Day ]
WEATHER ALMANAC - MARCH 26, 2013
[ Next Day → ]
[ °C ]   °F
Weather ElementAverageHighLow
Temperature81.9 °F89.6 °F (1:00 pm)75.2 °F (2:00 am)
Dewpoint69.7 °F71.6 °F (7:00 am)68 °F (6:00 am)
Humidity67.4 %83 % (2:00 am)52 % (1:00 pm)
Barometer29.85 in29.89 in (8:00 am)29.80 in (3:00 am)
Wind Speed5.5 mph9.2 mph (1:00 pm)
Wind Gust28.8 mph (1:00 am)
Weather ElementAverage
Visibility6.2 mi
Wind DirectionESE (102.6 °)

Weather ElementTotal
Precipitation---
Cooling Degree Days17.4 (Base 65)
Growing Degree Days32.4 (Base 50)
Averaged from 23 records on March 26, 2013
WEATHER CONDITIONS BREAKOUT
WIND DIRECTION BREAKOUT
WEATHER BY HOUR - MARCH 26, 2013
[ °C ]   °F
Local TimeTemperatureDewpointHumidityBarometerVisibilityWind DirectionWind SpeedGust SpeedPrecipitationEventsConditions
1:00 AM77.0 °F69.8 °F78 %29.83 in6.2 miVariable4.6 mph28.8 mphScattered Clouds
2:00 AM75.2 °F69.8 °F83 %29.83 in6.2 miVariable2.3 mph26.5 mphScattered Clouds
3:00 AM75.2 °F69.8 °F83 %29.80 in6.2 miVariable4.6 mph26.5 mphScattered Clouds
4:00 AM75.2 °F69.8 °F83 %29.80 in6.2 miWSW (250°)4.6 mphMostly Cloudy
5:00 AM75.2 °F69.8 °F83 %29.83 in6.2 miSSE (160°)2.3 mphMostly Cloudy
6:00 AM75.2 °F68.0 °F78 %29.83 in6.2 miSW (220°)5.8 mphMostly Cloudy
7:00 AM77.0 °F71.6 °F83 %29.86 in6.2 miWest (260°)3.5 mphMostly Cloudy
8:00 AM80.6 °F69.8 °F70 %29.89 in6.2 miNE (50°)4.6 mphMostly Cloudy
9:00 AM84.2 °F71.6 °F66 %29.89 in6.2 miNE (50°)8.1 mphScattered Clouds
10:00 AM86.0 °F69.8 °F58 %29.89 in6.2 miEast (80°)5.8 mphMostly Cloudy
11:00 AM86.0 °F71.6 °F62 %29.89 in6.2 miENE (60°)6.9 mphMostly Cloudy
12:00 PM87.8 °F71.6 °F58 %29.89 in6.2 miEast (80°)5.8 mphMostly Cloudy
1:00 PM89.6 °F69.8 °F52 %29.83 in6.2 miENE (60°)9.2 mphMostly Cloudy
2:00 PM89.6 °F71.6 °F55 %29.83 in6.2 miENE (60°)6.9 mphMostly Cloudy
3:00 PM87.8 °F69.8 °F55 %29.80 in6.2 miENE (70°)8.1 mphMostly Cloudy
4:00 PM89.6 °F69.8 °F52 %29.80 in6.2 miEast (100°)4.6 mphMostly Cloudy
5:00 PM87.8 °F69.8 °F55 %29.80 in6.2 miEast (90°)6.9 mphMostly Cloudy
6:00 PM86.0 °F69.8 °F58 %29.83 in6.2 miEast (100°)5.8 mphMostly Cloudy
7:00 PM82.4 °F68.0 °F62 %29.86 in6.2 miESE (120°)6.9 mphMostly Cloudy
8:00 PM80.6 °F68.0 °F65 %29.86 in6.2 miVariable3.5 mphMostly Cloudy
9:00 PM78.8 °F68.0 °F69 %29.86 in6.2 miSouth (190°)4.6 mphMostly Cloudy
10:00 PM78.8 °F68.0 °F69 %29.89 in6.2 miSouth (180°)4.6 mphMostly Cloudy
11:00 PM77.0 °F68.0 °F74 %29.89 in6.2 miSouth (180°)5.8 mphMostly Cloudy
Hourly data recorded from RPLC, located miles away from Angeles, Philippines







STORIES FROM OUR PARTNERS